Location: Unspecified
(0.0000°N, 0.0000°E)
Time: 22:50:47
(UTC+00:00)

ISS - Pass Details

Date: 19 April 2018
Orbit: 403 x 406 km, 51.6° (Epoch: 25 April)

Event Time Altitude Azimuth Distance (km) Brightness Sun altitude
Rises 18:40:40 0° 326° (NW) 2,309 0.8 -10.2°
Reaches altitude 10° 18:42:44 10° 327° (NNW) 1,453 -0.3 -10.7°
Maximum altitude 18:46:00 83° 55° (NE) 411 -3.9 -11.5°
Enters shadow 18:48:47 14° 142° (SE) 1,263 -1.8 -12.2°
